Rockford, IL

2:09 PM CDT on September 26, 2017 (GMT -0500)
Greater Rockford

Weather History for KRFD - September, 2012

Change the Weather History Date:

Wednesday, September 26, 2012

  Actual Average Record
Temperature  
Mean Temperature 61 °F 59 °F  
Max Temperature 73 °F 71 °F 92 °F (1920)
Min Temperature 49 °F 48 °F 26 °F (1926)
Degree Days  
Heating Degree Days 4 7  
Month to date heating degree days 114 85  
Since 1 July heating degree days 116 99  
Cooling Degree Days 0 1  
Month to date cooling degree days 92 80  
Year to date cooling degree days 1221 807  
Growing Degree Days 12 (Base 50)    
Moisture  
Dew Point 47 °F    
Average Humidity 68    
Maximum Humidity 100    
Minimum Humidity 35    
Precipitation  
Precipitation 0.00 in 0.11 in 3.93 in (2011)
Month to date precipitation 1.74 2.95  
Year to date precipitation 17.84 28.61  
Snow  
Snow 0.00 in 0.00 in 0.00 in ()
Month to date snowfall 0.0 0.0  
Since 1 July snowfall 0.0 0.0  
Since 1 September snowfall 0.0 0.0  
Snow Depth 0.00 in    
Sea Level Pressure  
Sea Level Pressure 30.04 in    
Wind  
Wind Speed 8 mph (NE)    
Max Wind Speed 15 mph    
Max Gust Speed 20 mph    
Visibility 10 miles    
Events      
T = Trace of Precipitation, MM = Missing Value Source: NWS Daily Summary

Daily Weather History Graph

Daily Weather History Graph

Search for Another Location

Airport or City:

Trip Planner

Search our weather history database for the weather conditions in past years. The results will help you decide how hot, cold, wet, or windy it might be!

Date:

Astronomy

Sep. 26, 2012 Rise Set
Actual Time 6:48 AM CDT 6:45 PM CDT
Civil Twilight 6:20 AM CDT 7:13 PM CDT
Nautical Twilight 5:48 AM CDT 7:46 PM CDT
Astronomical Twilight 5:14 AM CDT 8:19 PM CDT
Moon 4:47 PM CDT 3:11 AM CDT
Length of Visible Light 12h 53m
Length of Day
11h 57m
Waxing Gibbous, 88% of the Moon is Illuminated
Sep 26
Waxing Gibbous
Sep 29
Full
Oct 8
Last Quarter
Oct 15
New
Oct 21
First Quarter

Hourly Weather History & Observations

Time (CDT) Temp. Dew Point Humidity Pressure Visibility Wind Dir Wind Speed Gust Speed Precip Events Conditions
12:54 AM 54.0 °F 48.9 °F 83% 29.90 in 10.0 mi North 4.6 mph - N/A   Clear
1:54 AM 54.0 °F 52.0 °F 93% 29.91 in 10.0 mi North 5.8 mph - N/A   Clear
2:54 AM 53.6 °F 51.8 °F 94% 29.92 in 10.0 mi North 4.6 mph - N/A   Partly Cloudy
3:54 AM 52.0 °F 51.1 °F 97% 29.91 in 9.0 mi North 4.6 mph - N/A   Clear
4:54 AM 52.0 °F 51.1 °F 97% 29.96 in 10.0 mi NNE 4.6 mph - N/A   Clear
5:54 AM 52.0 °F 50.0 °F 93% 29.96 in 10.0 mi NNE 9.2 mph - N/A   Clear
6:05 AM 51.8 °F 50.0 °F 94% 29.97 in 10.0 mi NNE 12.7 mph - N/A   Mostly Cloudy
6:54 AM 52.0 °F 51.1 °F 97% 29.99 in 10.0 mi NNE 6.9 mph - N/A   Overcast
7:54 AM 53.1 °F 51.1 °F 93% 30.03 in 10.0 mi NNE 8.1 mph - N/A   Overcast
8:39 AM 53.6 °F 50.0 °F 88% 30.05 in 10.0 mi NNE 9.2 mph - N/A   Mostly Cloudy
8:54 AM 54.0 °F 50.0 °F 86% 30.05 in 10.0 mi NNE 10.4 mph - N/A   Mostly Cloudy
9:54 AM 59.0 °F 50.0 °F 72% 30.06 in 10.0 mi NNE 11.5 mph - N/A   Scattered Clouds
10:54 AM 64.9 °F 50.0 °F 58% 30.06 in 10.0 mi NE 8.1 mph - N/A   Scattered Clouds
11:54 AM 64.9 °F 48.0 °F 54% 30.07 in 10.0 mi NNE 9.2 mph - N/A   Scattered Clouds
12:54 PM 69.1 °F 46.9 °F 45% 30.06 in 10.0 mi ENE 9.2 mph - N/A   Scattered Clouds
1:54 PM 71.1 °F 46.0 °F 41% 30.05 in 10.0 mi NE 10.4 mph - N/A   Scattered Clouds
2:54 PM 72.0 °F 45.0 °F 38% 30.05 in 10.0 mi East 4.6 mph - N/A   Partly Cloudy
3:54 PM 73.0 °F 45.0 °F 37% 30.05 in 10.0 mi Variable 4.6 mph - N/A   Partly Cloudy
4:54 PM 71.1 °F 44.1 °F 38% 30.06 in 10.0 mi North 9.2 mph - N/A   Scattered Clouds
5:54 PM 68.0 °F 42.1 °F 39% 30.08 in 10.0 mi NNE 10.4 mph - N/A   Scattered Clouds
6:54 PM 63.0 °F 37.9 °F 40% 30.12 in 10.0 mi ENE 8.1 mph - N/A   Scattered Clouds
7:54 PM 59.0 °F 48.0 °F 67% 30.15 in 10.0 mi ENE 11.5 mph - N/A   Partly Cloudy
8:54 PM 55.9 °F 44.1 °F 64% 30.17 in 10.0 mi ENE 12.7 mph - N/A   Scattered Clouds
9:54 PM 53.1 °F 41.0 °F 64% 30.19 in 10.0 mi ENE 10.4 mph - N/A   Partly Cloudy
10:54 PM 51.1 °F 41.0 °F 68% 30.20 in 10.0 mi ENE 9.2 mph - N/A   Partly Cloudy
11:54 PM 50.0 °F 41.0 °F 71% 30.20 in 10.0 mi East 6.9 mph - N/A   Partly Cloudy